Date,TemperatureHighF,TemperatureAvgF,TemperatureLowF,DewpointHighF,DewpointAvgF,DewpointLowF,HumidityHigh,HumidityAvg,HumidityLow,PressureMaxIn,PressureMinIn,WindSpeedMaxMPH,WindSpeedAvgMPH,GustSpeedMaxMPH,PrecipitationSumIn
2013-1-1,47,44,39,42,36,29,94,75,50,30.02,29.88,15,1,15,0.17
2013-1-2,44,39,35,38,33,24,96,80,62,30.20,29.96,12,1,12,0.10
2013-1-3,38,34,33,24,21,18,65,57,47,30.25,30.15,10,1,10,0.00
2013-1-8,50,41,33,37,34,29,89,74,58,30.45,30.36,2,0,5,0.00
2013-1-9,65,53,39,53,46,36,92,77,66,30.39,30.26,4,1,15,0.00
2013-1-10,59,50,42,50,38,30,99,68,38,30.56,30.36,3,0,7,0.00
2013-1-11,47,44,40,47,40,32,100,88,67,30.49,30.09,3,1,9,0.09
2013-1-12,53,50,47,52,50,47,100,99,94,30.16,30.08,3,0,8,0.01
2013-1-13,69,59,52,63,58,52,100,97,82,30.11,29.99,2,1,8,0.01
2013-1-14,64,55,43,63,54,42,99,96,91,30.23,30.00,21,2,21,1.04
2013-1-15,43,41,39,42,40,39,99,99,96,30.29,30.09,14,2,14,1.47
2013-1-16,45,41,37,45,40,36,100,99,98,30.10,29.90,10,1,10,0.50
2013-1-17,46,42,33,46,41,33,100,99,96,30.11,29.97,15,1,15,1.28
2013-1-18,41,34,31,34,30,25,100,87,57,30.51,30.09,10,1,10,0.29
2013-1-19,55,40,29,33,29,24,85,65,39,30.46,30.05,15,2,15,0.40
2013-1-20,61,49,40,36,32,29,67,53,34,30.05,29.87,38,5,38,0.00
2013-1-21,56,46,28,32,23,9,77,41,29,30.08,29.77,18,2,18,0.00
2013-1-22,38,28,20,11,4,-4,47,35,22,30.28,29.91,21,3,21,0.00
2013-1-23,34,25,14,22,4,-1,76,43,24,30.36,30.09,16,1,16,0.00
2013-1-24,30,25,19,24,13,2,91,65,33,30.54,30.01,24,2,24,0.00
2013-1-25,26,21,16,21,13,4,91,74,40,30.53,30.08,9,0,9,0.00
2013-1-26,43,30,21,28,25,20,94,81,55,30.42,30.07,9,0,9,0.06
2013-1-27,41,32,25,28,24,21,93,71,51,30.61,30.42,9,1,9,0.00
2013-1-28,55,42,32,47,36,25,97,80,62,30.50,30.09,20,2,20,0.23
2013-1-29,58,48,45,50,45,43,94,88,76,30.14,30.09,10,1,10,0.00
2013-1-30,72,67,62,64,61,55,90,81,73,30.01,29.31,6,4,23,0.04
2013-1-31,66,47,33,64,31,17,95,57,33,29.97,29.23,12,8,25,0.35
2013-2-1,38,32,23,26,12,3,69,45,27,30.41,29.80,10,4,21,0.00
2013-2-2,37,29,19,27,21,7,88,72,35,30.42,29.99,4,1,14,0.00
2013-2-3,43,34,29,31,27,23,88,75,50,29.99,29.81,14,1,14,0.00
2013-2-4,41,34,25,25,20,16,77,55,42,30.13,29.92,4,1,12,0.00
2013-2-5,56,48,41,38,32,26,62,55,45,29.92,29.81,8,3,16,0.00
2013-2-6,57,45,33,36,33,30,90,65,38,30.31,29.91,3,1,9,0.00
2013-2-7,45,39,32,36,32,28,94,79,60,30.40,30.12,9,2,9,0.11
2013-2-8,50,42,37,42,37,26,98,84,55,30.12,29.72,27,4,27,1.03
2013-2-9,50,40,32,27,22,14,75,51,25,30.25,29.93,21,3,21,0.00
2013-2-10,51,40,25,31,24,17,82,55,32,30.49,30.24,6,1,6,0.00
2013-2-11,61,47,39,57,44,30,99,90,62,30.24,29.81,27,2,27,0.04
2013-2-12,61,52,41,47,31,26,70,47,28,29.99,29.80,8,2,12,0.00
2013-2-13,51,44,37,42,36,29,97,78,43,29.90,29.60,12,1,12,0.10
2013-2-14,53,41,31,38,34,30,99,79,44,30.04,29.77,12,1,12,0.00
2013-2-15,63,48,33,38,33,25,95,62,27,30.05,29.87,18,2,18,0.00
2013-2-16,42,36,31,37,33,19,97,90,60,29.99,29.82,16,2,16,0.19
2013-2-17,34,29,24,20,10,3,75,45,28,30.23,29.84,26,5,26,0.00
2013-2-18,51,34,19,22,13,7,73,45,20,30.41,30.20,14,1,14,0.00
2013-2-19,49,41,34,47,35,21,97,79,50,30.21,29.76,21,2,21,0.13
2013-2-20,48,38,29,36,20,15,94,48,29,30.14,29.86,18,3,18,0.00
2013-2-21,46,35,25,20,18,15,69,50,33,30.29,30.12,16,2,16,0.00
2013-2-22,39,35,32,34,26,18,94,70,53,30.36,30.18,12,1,12,0.03
2013-2-23,43,39,35,42,38,34,99,97,94,30.18,29.79,10,1,10,0.20
2013-2-24,59,46,35,44,38,24,100,77,43,30.09,29.78,22,2,22,0.00
2013-2-25,37,32,28,24,22,20,74,65,55,30.21,30.08,14,1,14,0.00
2013-2-26,52,45,31,52,43,26,99,94,80,30.20,29.53,21,3,21,0.67
2013-2-27,60,49,39,50,42,35,100,79,44,29.68,29.52,22,3,22,0.01
2013-2-28,48,44,38,39,32,25,88,65,42,29.75,29.62,21,3,21,0.00
2013-3-1,46,40,33,31,28,25,83,63,52,29.88,29.75,20,2,20,0.00
2013-3-2,39,36,34,26,25,23,67,62,55,29.90,29.81,15,2,15,0.00
2013-3-3,46,35,27,24,22,20,83,62,38,29.90,29.78,15,2,15,0.00
2013-3-4,50,36,25,20,17,15,73,49,27,30.05,29.92,6,2,13,0.00
2013-3-5,50,38,28,38,26,19,97,64,32,30.08,29.67,12,1,12,0.48
2013-3-6,40,36,33,39,35,32,99,95,76,29.96,29.41,33,4,33,2.77
2013-3-7,50,41,33,32,30,28,88,68,44,30.11,29.96,24,3,24,0.25
2013-3-8,50,42,34,30,28,25,76,60,46,30.24,30.12,9,5,20,0.00
2013-3-9,62,47,35,31,28,25,74,52,25,30.33,30.23,6,2,13,0.00
2013-3-10,67,50,33,42,28,18,86,50,20,30.33,30.20,3,1,9,0.00
2013-3-11,67,54,42,53,47,41,98,78,54,30.24,29.93,4,2,11,0.00
2013-3-12,70,60,45,62,53,35,98,80,63,29.94,29.69,20,3,20,0.45
2013-3-13,54,43,33,36,30,17,95,62,32,30.07,29.90,27,3,27,0.00
2013-3-14,52,40,29,22,18,14,69,44,23,30.17,30.02,24,3,24,0.00
2013-3-15,59,41,29,36,25,18,72,53,33,30.12,29.81,14,1,22,0.00
2013-3-16,72,56,46,56,46,36,99,73,50,29.85,29.56,22,2,22,0.50
2013-3-17,49,40,34,46,38,33,97,92,88,30.26,29.84,10,2,10,0.38
2013-3-18,37,35,33,37,34,32,99,98,97,30.28,29.86,14,2,14,0.85
2013-3-19,66,47,35,44,30,4,99,65,15,29.95,29.72,28,3,28,0.02
2013-3-20,57,46,31,21,14,5,61,29,17,30.04,29.75,22,3,22,0.00
2013-3-21,48,37,30,28,20,10,89,50,28,29.93,29.70,24,4,24,0.00
2013-3-22,51,37,26,23,16,11,59,44,27,30.02,29.89,20,3,20,0.00
2013-3-23,57,42,28,28,23,20,82,52,25,30.06,29.90,15,2,15,0.00
2013-3-24,46,37,33,33,29,21,98,74,38,29.97,29.61,14,2,14,0.06
2013-3-25,38,35,33,36,34,32,98,96,91,29.70,29.52,12,1,12,0.84
2013-3-26,49,39,32,34,30,26,98,72,43,29.89,29.70,18,2,18,0.10
2013-3-27,50,41,31,29,27,23,85,58,36,30.15,30.01,6,3,15,0.00
2013-3-28,52,43,33,29,27,26,75,55,40,30.24,30.12,8,3,15,0.00
2013-3-29,59,47,36,33,30,27,73,53,32,30.27,30.14,4,1,11,0.00
2013-3-30,65,55,35,35,32,28,87,43,26,30.22,30.08,12,1,13,0.00
2013-3-31,57,51,47,54,46,33,98,84,56,30.10,29.73,14,1,14,0.23
2013-4-1,70,57,45,52,43,26,99,65,36,29.96,29.72,30,4,30,0.00
2013-4-2,57,46,32,27,21,12,80,40,18,30.15,29.96,18,3,18,0.00
2013-4-3,59,44,29,28,18,13,77,39,17,30.36,30.15,18,2,18,0.00
2013-4-4,51,41,33,38,23,15,96,52,30,30.42,30.02,10,1,10,0.51
2013-4-5,67,50,37,43,37,30,98,66,27,30.02,29.83,18,2,18,0.42
2013-4-6,62,50,42,34,26,22,65,41,23,30.30,30.01,4,3,12,0.00
2013-4-7,73,64,36,44,41,32,88,46,32,30.28,30.02,27,2,27,0.00
2013-4-8,83,68,55,54,50,44,78,54,32,30.09,29.96,16,2,16,0.00
2013-4-9,89,75,62,58,55,52,79,53,30,30.10,29.95,16,2,16,0.00
2013-4-10,92,79,67,60,58,55,73,51,30,30.00,29.81,20,4,20,0.00
2013-4-11,87,76,67,63,60,58,78,59,41,29.90,29.73,21,3,21,0.00
2013-4-12,85,74,65,69,63,42,98,71,36,29.74,29.52,21,2,21,0.84
2013-4-13,73,63,48,58,44,38,90,52,30,29.92,29.66,20,2,20,0.00
2013-4-14,78,61,47,43,40,35,76,49,26,30.09,29.92,8,1,10,0.00
2013-4-15,66,59,53,56,51,37,96,77,42,30.25,30.06,14,2,14,0.04
2013-4-16,77,66,56,62,58,54,95,77,55,30.29,30.16,10,1,10,0.00
2013-4-17,83,71,62,65,62,60,94,74,51,30.18,30.09,10,1,10,0.00
2013-4-18,82,70,60,65,61,58,98,75,47,30.19,30.00,10,1,10,0.00
2013-4-19,83,70,64,68,64,60,98,84,60,30.01,29.61,28,1,28,0.71
2013-4-20,67,57,50,63,39,28,97,55,25,30.28,29.71,15,2,15,0.01
2013-4-21,59,50,42,36,32,29,72,51,35,30.55,30.28,20,2,20,0.00
2013-4-22,58,48,37,43,39,34,88,72,50,30.53,30.33,18,2,18,0.00
2013-4-23,65,52,47,49,46,43,92,79,54,30.33,30.11,12,1,12,0.00
2013-4-24,79,63,47,57,52,46,98,73,42,30.11,29.86,24,2,24,0.00
2013-4-25,70,59,50,58,40,32,73,51,25,30.26,29.93,21,2,21,0.00
2013-4-26,72,58,43,45,41,33,94,58,25,30.44,30.25,12,1,12,0.00
2013-4-27,74,62,50,45,43,37,78,52,34,30.40,30.25,10,1,10,0.00
2013-4-28,65,58,52,53,45,38,95,63,41,30.28,30.11,8,0,8,0.00
2013-4-29,64,59,54,61,58,53,99,97,90,30.13,29.98,9,0,9,0.72
2013-4-30,65,59,56,60,57,54,99,93,82,30.22,30.04,14,2,14,0.02
2013-5-1,69,60,54,56,50,42,98,71,44,30.37,30.21,15,2,15,0.00
2013-5-2,69,58,53,53,51,46,95,79,53,30.40,30.28,12,2,12,0.00
2013-5-3,70,57,47,54,47,41,99,74,38,30.32,30.25,20,2,20,0.00
2013-5-4,65,53,44,53,47,42,94,80,59,30.27,30.13,14,2,14,0.00
2013-5-5,62,54,44,52,47,40,89,77,64,30.18,30.09,15,2,15,0.00
2013-5-6,69,59,53,63,57,51,98,91,69,30.11,29.92,20,3,20,0.21
2013-5-7,75,63,58,65,60,56,100,91,54,29.95,29.80,14,2,14,1.87
2013-5-8,68,59,55,60,58,55,100,94,66,29.99,29.91,10,0,10,0.24
2013-5-9,81,64,53,62,58,53,100,81,47,30.01,29.93,18,1,18,0.02
2013-5-10,87,73,60,64,61,57,94,67,40,30.02,29.87,12,1,12,0.00
2013-5-11,80,72,61,67,64,59,97,76,56,29.91,29.72,22,2,22,0.19
2013-5-12,72,64,52,62,50,33,99,65,28,30.02,29.72,14,1,14,0.02
2013-5-13,63,53,42,43,36,27,94,56,31,30.16,30.02,12,1,12,0.00
2013-5-14,71,55,38,43,38,33,92,57,30,30.23,30.03,10,1,10,0.00
2013-5-15,89,68,56,65,52,42,71,58,43,30.05,29.74,14,2,14,0.00
2013-5-16,88,75,65,66,62,58,99,69,41,29.93,29.78,28,2,28,0.48
2013-5-17,87,73,63,65,59,49,100,66,39,30.12,29.91,9,1,9,0.00
2013-5-18,67,63,60,66,62,55,100,96,67,30.19,30.09,8,1,8,0.59
2013-5-19,77,69,63,70,66,63,100,90,76,30.17,30.06,9,0,9,0.00
2013-5-20,85,73,65,71,68,65,100,87,58,30.10,29.98,14,1,14,0.00
2013-5-21,85,74,68,72,70,67,97,87,65,30.00,29.88,8,1,8,0.00
2013-5-22,87,77,70,74,70,68,96,81,62,29.97,29.84,16,2,16,0.00
2013-5-23,82,73,69,72,69,65,96,86,63,29.92,29.76,10,1,10,0.05
2013-5-24,69,61,50,65,53,38,94,75,47,30.15,29.75,15,2,15,0.02
2013-5-25,72,56,43,43,37,33,76,51,24,30.24,30.08,15,2,15,0.00
2013-5-26,77,62,47,48,41,35,79,50,24,30.25,30.13,10,1,10,0.00
2013-5-27,78,65,50,61,51,41,89,63,41,30.27,30.15,9,1,9,0.00
2013-5-28,87,74,61,69,63,55,85,70,54,30.19,30.07,14,1,14,0.00
2013-5-29,90,79,69,70,66,64,84,67,48,30.15,30.08,12,2,12,0.00
2013-5-30,91,79,68,70,67,64,88,69,46,30.20,30.12,12,1,12,0.00
2013-5-31,91,79,69,71,67,64,90,69,44,30.17,30.04,14,1,14,0.00
2013-6-1,91,80,72,72,68,65,89,69,47,30.07,29.94,15,2,15,0.00
2013-6-2,87,77,69,73,69,66,99,77,59,29.96,29.85,16,2,16,0.60
2013-6-3,85,74,68,73,70,66,100,88,56,29.93,29.79,10,0,10,0.08
2013-6-4,82,70,61,68,53,44,98,59,29,30.11,29.93,16,1,16,0.00
2013-6-5,85,70,60,61,57,50,89,64,42,30.16,30.04,10,1,10,0.00
2013-6-6,77,70,61,69,63,54,94,79,67,30.06,29.81,15,2,15,0.00
2013-6-7,72,70,68,72,70,68,100,99,95,29.81,29.52,14,1,14,1.91
2013-6-8,84,72,67,70,68,66,100,90,55,30.07,29.74,6,0,6,0.87
2013-6-9,88,75,66,74,70,65,100,85,56,30.15,30.03,10,1,10,0.00
2013-6-10,82,75,71,76,73,70,99,93,77,30.07,29.82,16,1,16,0.21
2013-6-11,86,76,70,71,69,66,99,80,56,29.88,29.80,16,2,16,0.00
2013-6-12,91,79,68,75,69,65,90,73,55,29.90,29.78,12,1,12,0.00
2013-6-13,92,82,75,76,74,67,96,80,54,29.80,29.50,16,2,16,0.00
2013-6-14,81,72,62,62,58,54,90,65,43,29.97,29.63,10,1,12,0.00
2013-6-15,86,72,59,63,60,58,97,69,41,30.09,29.97,9,1,9,0.00
2013-6-16,88,78,68,72,67,62,84,71,52,30.02,29.91,15,2,15,0.00
2013-6-17,87,77,69,75,71,67,99,84,62,29.98,29.88,9,1,9,0.11
2013-6-18,77,72,66,75,71,66,100,96,89,29.92,29.73,21,0,21,1.58
2013-6-19,79,70,64,68,66,64,100,88,66,30.13,29.85,8,0,8,0.00
2013-6-20,84,72,63,66,60,53,98,70,42,30.25,30.13,10,1,10,0.00
2013-6-21,85,71,58,69,60,52,97,72,41,30.28,30.21,9,1,9,0.00
2013-6-22,86,73,66,73,68,63,99,87,59,30.24,30.14,14,1,14,0.05
2013-6-23,89,77,69,75,72,69,100,87,59,30.18,30.08,9,1,9,0.31
2013-6-24,93,81,73,77,74,71,96,80,54,30.14,30.02,12,1,12,0.00
2013-6-25,94,82,73,76,73,70,94,76,51,30.05,29.91,10,2,10,0.00
2013-6-26,95,79,70,77,73,68,99,83,50,29.93,29.81,15,2,15,0.11
2013-6-27,86,74,68,76,71,68,100,91,62,29.84,29.66,15,2,15,0.00
2013-6-28,90,82,73,79,73,70,93,75,59,29.66,29.49,10,2,19,0.03
2013-6-29,92,79,71,75,70,66,96,77,47,29.69,29.53,15,1,15,0.00
2013-6-30,89,78,71,76,74,70,99,87,63,29.85,29.69,10,1,10,0.12
2013-7-1,84,75,70,76,73,69,100,96,72,29.98,29.84,9,0,9,0.50
2013-7-2,80,75,73,76,74,72,100,97,85,30.16,29.97,10,1,10,0.26
2013-7-3,86,77,72,78,75,72,100,95,72,30.22,30.15,8,0,9,0.49
2013-7-4,91,82,73,75,74,72,100,79,55,30.27,30.16,3,1,8,0.00
2013-7-5,90,82,72,76,74,72,98,79,60,30.25,30.14,3,1,8,0.00
2013-7-6,91,81,75,76,74,70,96,81,53,30.21,30.09,3,1,10,0.00
2013-7-7,90,82,75,76,75,73,92,80,60,30.12,30.00,3,2,11,0.00
2013-7-8,86,78,72,74,73,71,99,86,67,30.12,30.05,2,0,8,0.03
2013-7-9,88,81,74,78,75,72,97,84,65,30.11,30.00,10,1,10,0.00
2013-7-10,91,79,72,80,75,71,100,87,68,30.03,29.89,12,1,12,1.01
2013-7-11,84,76,71,76,73,71,100,93,73,29.93,29.86,8,0,8,0.25
2013-7-12,77,72,67,72,70,67,100,94,83,30.03,29.86,12,1,12,0.33
2013-7-13,84,76,68,79,73,68,100,91,77,30.23,30.02,8,0,8,0.05
2013-7-14,76,74,73,75,74,73,100,99,98,30.24,30.22,2,0,2,0.00
2013-7-15,95,82,72,77,75,72,100,81,53,30.31,30.19,2,1,7,0.00
2013-7-16,96,82,72,83,76,68,100,83,57,30.21,30.12,12,1,12,0.85
2013-7-17,97,83,73,79,76,72,100,81,49,30.19,30.07,9,0,9,0.00
2013-7-18,96,84,75,80,77,72,100,79,51,30.11,30.00,6,0,6,0.00
2013-7-19,94,86,76,80,77,75,98,75,59,30.02,29.90,10,1,10,0.00
2013-7-20,92,83,78,80,76,73,91,80,61,29.93,29.83,14,2,14,0.00
2013-7-21,93,80,71,79,75,70,100,86,61,29.94,29.84,18,1,18,2.12
2013-7-22,91,82,71,79,76,71,100,83,65,29.92,29.76,10,1,10,0.00
2013-7-23,92,81,75,76,74,72,97,80,55,29.77,29.64,12,2,12,0.00
2013-7-24,87,80,72,75,71,64,95,77,59,29.86,29.67,8,1,8,0.00
2013-7-25,79,73,65,65,62,59,92,70,55,30.02,29.84,15,1,15,0.00
2013-7-26,86,72,60,68,64,60,99,76,46,30.09,30.00,9,0,9,0.00
2013-7-27,85,76,67,73,70,66,99,82,64,30.04,29.90,10,0,10,0.00
2013-7-28,90,76,70,74,71,67,100,84,56,29.95,29.86,8,1,11,0.22
2013-7-29,86,74,67,70,66,60,100,77,47,30.14,29.95,10,1,10,0.01
2013-7-30,89,75,63,67,64,60,97,71,42,30.22,30.12,3,0,5,0.00
2013-7-31,83,72,68,72,68,65,100,88,62,30.14,30.00,9,0,9,0.62
2013-8-1,84,70,68,77,70,66,100,98,69,30.00,29.81,10,0,10,1.77
2013-8-2,68,67,66,68,67,66,100,100,100,29.93,29.85,3,0,3,0.00
2013-8-3,87,79,69,71,69,67,94,73,56,29.96,29.89,8,0,8,0.00
2013-8-4,85,75,67,71,63,56,96,68,42,30.02,29.88,8,1,15,0.00
2013-8-5,84,72,60,64,60,56,95,71,43,30.10,30.00,8,0,8,0.00
2013-8-6,76,70,65,71,68,64,100,93,81,30.05,29.98,8,1,8,0.63
2013-8-7,83,73,70,72,70,69,99,91,68,30.07,30.03,14,1,14,0.00
2013-8-8,89,82,73,76,74,72,97,78,60,30.04,29.96,9,0,9,0.00
2013-8-9,93,83,76,79,76,73,94,80,62,29.98,29.88,16,2,16,0.00
2013-8-10,84,77,71,77,73,70,99,88,74,30.07,29.95,12,1,12,1.01
2013-8-11,85,76,72,77,74,72,100,92,75,30.10,29.99,4,0,4,0.00
2013-8-12,92,80,72,76,74,71,100,82,55,30.01,29.89,9,0,9,0.00
2013-8-13,88,79,74,77,74,71,96,85,64,29.90,29.72,14,1,14,0.00
2013-8-14,74,69,64,72,63,52,98,82,64,29.96,29.78,18,2,18,0.01
2013-8-15,77,67,60,61,57,54,86,72,52,30.16,30.08,2,0,4,0.00
2013-8-16,76,67,57,61,59,57,99,78,54,30.18,30.11,2,0,6,0.00
2013-8-17,78,72,62,68,65,57,97,79,67,30.22,30.16,10,1,10,0.08
2013-8-18,68,66,64,67,66,64,100,99,97,30.20,30.12,9,1,9,0.55
2013-8-19,72,68,64,70,67,64,100,98,93,30.19,30.07,6,0,6,0.16
2013-8-20,71,69,68,71,69,68,100,100,100,30.15,30.08,4,0,4,0.00
2013-8-21,89,78,70,77,74,70,100,87,64,30.19,30.06,2,0,6,0.00
2013-8-22,91,79,72,74,72,70,99,83,51,30.09,29.94,2,0,7,0.00
2013-8-23,79,69,62,73,68,61,100,97,78,30.10,29.92,12,1,12,2.26
2013-8-24,78,65,60,69,63,60,100,94,63,30.24,30.09,12,0,12,0.00
2013-8-25,82,70,62,66,62,56,100,78,43,30.39,30.27,3,1,7,0.00
2013-8-26,87,71,58,67,62,57,98,76,48,30.31,30.04,2,1,7,0.00
2013-8-27,90,77,66,75,69,60,92,77,59,30.04,29.90,3,1,6,0.00
2013-8-28,79,75,72,74,73,71,100,94,84,29.93,29.80,8,1,8,0.41
2013-8-29,85,76,70,75,73,69,100,90,70,30.00,29.79,10,1,10,0.00
2013-8-30,81,71,66,71,68,66,100,93,66,30.05,29.99,6,0,6,0.00
2013-8-31,87,76,70,76,72,68,98,86,67,29.93,29.80,9,1,9,0.00
2013-9-1,95,78,70,77,73,70,100,87,55,29.85,29.74,6,1,6,0.01
2013-9-6,81,71,63,62,58,54,86,64,48,30.20,30.08,3,1,10,0.00
2013-9-7,80,68,59,66,62,58,99,82,59,30.12,29.94,3,1,7,0.00
2013-9-8,88,75,64,71,67,63,97,78,52,29.98,29.87,2,0,6,0.00
2013-9-9,81,74,68,72,67,58,93,78,70,30.15,29.98,2,1,6,0.00
2013-9-10,92,78,70,75,72,70,100,83,58,30.18,30.09,3,1,6,0.00
2013-9-11,93,81,72,75,71,69,91,74,50,30.15,30.02,3,1,7,0.00
2013-9-12,91,74,69,75,70,67,99,89,58,30.01,29.74,14,1,14,0.48
2013-9-13,81,72,64,70,63,53,100,76,45,29.90,29.70,20,1,20,0.00
2013-9-14,74,63,56,54,51,47,84,66,45,30.14,29.89,15,1,15,0.00
2013-9-15,80,64,50,60,54,49,99,74,45,30.26,30.09,8,1,8,0.00
2013-9-16,76,65,62,66,61,58,92,86,72,30.11,30.07,9,1,9,0.00
2013-9-17,72,61,53,56,52,47,94,74,44,30.38,30.20,4,2,12,0.00
2013-9-18,75,59,46,55,50,46,99,75,41,30.33,30.18,2,0,5,0.00
2013-9-19,78,65,54,61,57,53,98,79,52,30.19,30.08,2,0,6,0.00
2013-9-20,81,68,58,65,61,56,95,78,57,30.09,29.95,2,1,5,0.00
2013-9-21,74,68,61,69,66,59,100,94,73,29.96,29.69,15,1,15,0.83
2013-9-22,73,64,60,66,61,56,100,90,56,29.83,29.72,12,1,12,0.07
2013-10-1,85,67,56,64,60,54,96,79,45,30.09,29.99,2,0,5,0.00
2013-10-2,88,71,59,64,62,58,99,77,42,30.10,30.01,2,0,5,0.00
2013-10-3,87,72,60,67,64,60,99,78,48,30.11,30.04,2,0,4,0.00
2013-10-4,89,74,64,69,66,63,96,78,49,30.09,30.01,2,1,6,0.00
2013-10-5,92,76,65,69,67,64,98,76,45,30.08,29.99,2,0,6,0.00
2013-10-6,87,76,68,69,67,64,92,75,49,30.03,29.92,3,1,8,0.00
2013-10-7,77,69,59,72,66,53,100,93,81,30.03,29.82,22,2,22,0.85
2013-10-8,63,58,54,53,50,47,82,75,65,30.24,30.03,18,2,18,0.00
2013-10-9,58,56,54,56,54,51,99,90,80,30.23,30.10,21,3,21,0.93
2013-10-10,57,55,54,57,55,54,100,99,98,30.10,29.91,14,3,14,1.96
2013-10-11,63,59,57,62,59,57,100,99,94,29.93,29.88,14,1,14,0.08
2013-10-12,65,63,61,65,63,61,100,100,99,30.09,29.91,14,2,14,0.20
2013-10-13,64,62,61,64,62,60,100,100,98,30.25,30.08,10,2,10,0.30
2013-10-25,58,43,33,36,32,27,89,68,34,30.33,30.15,3,1,7,0.00
2013-10-26,59,44,31,37,33,29,98,69,34,30.32,29.99,4,1,14,0.00
2013-10-27,66,52,42,44,40,36,88,66,40,30.12,29.98,3,1,8,0.00
2013-10-28,68,53,40,51,46,40,99,80,52,30.25,30.11,2,0,4,0.00
2013-10-29,69,58,52,52,49,47,87,74,50,30.35,30.24,2,0,6,0.00
2013-10-30,66,58,51,60,55,48,99,92,79,30.30,30.14,2,0,5,0.01
2013-10-31,72,66,57,63,60,57,100,83,69,30.17,29.83,8,1,8,0.00
2013-11-1,71,69,65,66,65,61,95,87,81,29.83,29.61,26,2,26,0.01
2013-11-9,60,44,31,34,31,29,93,65,36,30.37,30.09,3,1,12,0.00
2013-11-10,70,54,41,39,33,29,75,47,23,30.24,29.96,6,2,18,0.00
2013-11-11,59,47,35,35,32,29,83,56,36,30.34,30.08,3,1,8,0.00
2013-11-12,50,44,34,40,28,17,69,53,42,30.40,29.97,6,3,19,0.00
2013-11-13,46,35,27,24,20,18,74,57,35,30.51,30.41,4,1,12,0.00
2013-11-14,62,43,27,26,21,17,79,48,17,30.41,30.27,3,1,9,0.00
2013-11-15,61,50,39,49,34,25,93,57,30,30.30,30.19,4,1,9,0.00
2013-11-16,55,51,50,54,50,48,100,97,91,30.30,30.23,4,0,4,0.33
2013-11-17,68,61,52,63,58,52,100,92,76,30.22,29.79,8,0,10,0.00
2013-11-18,68,64,60,66,63,58,99,97,94,29.83,29.72,15,1,15,0.17
2013-11-19,53,46,40,30,29,26,63,51,35,30.34,29.92,6,2,13,0.00
2013-11-20,50,41,35,36,31,27,83,67,53,30.52,30.35,3,2,9,0.00
2013-11-21,57,46,39,47,41,35,90,81,68,30.53,30.39,3,1,7,0.00
2013-11-22,70,59,47,59,52,43,90,79,64,30.39,30.00,6,2,26,0.00
2013-11-23,62,50,40,59,29,18,89,47,31,30.14,29.99,10,2,14,0.00
2013-11-24,40,30,24,24,8,1,64,39,24,30.54,30.14,32,4,32,0.00
2013-11-25,40,29,20,15,12,7,79,49,30,30.60,30.37,12,1,12,0.00
2013-11-26,62,41,35,62,34,13,100,78,37,30.39,29.55,16,2,16,1.49
2013-11-27,43,39,32,43,37,21,100,93,62,30.08,29.50,22,2,22,1.85
2013-11-28,41,29,24,24,20,17,83,70,41,30.48,30.08,10,1,10,0.00
2013-11-29,46,34,27,27,24,22,85,67,41,30.69,30.46,16,1,16,0.00
2013-11-30,42,33,28,30,25,23,82,71,55,30.70,30.51,9,2,9,0.00
2013-12-1,51,37,26,35,30,24,97,78,51,30.37,30.02,3,0,7,0.00
2013-12-2,58,44,31,38,34,29,96,73,43,30.01,29.84,2,0,5,0.00
2013-12-3,60,47,36,44,40,35,97,79,54,29.99,29.86,3,0,6,0.00
2013-12-4,59,55,49,54,53,44,98,91,80,30.07,29.99,6,0,6,0.00
2013-12-5,64,60,54,63,60,54,99,98,94,30.09,29.96,14,1,14,0.02
2013-12-6,69,55,44,66,53,43,98,94,81,30.10,29.93,26,3,26,0.01
2013-12-7,45,40,35,44,36,27,99,83,68,30.51,30.07,26,3,26,0.57
2013-12-8,35,32,31,32,29,24,98,89,70,30.54,30.28,16,2,16,0.49
2013-12-9,33,33,32,33,32,31,99,99,98,30.28,30.15,4,0,4,0.00
2013-12-10,38,35,30,38,34,27,100,97,83,30.26,29.98,12,1,12,0.45
2013-12-11,31,28,26,27,25,23,93,87,76,30.42,30.26,6,0,6,0.00
2013-12-12,40,32,28,27,21,12,84,64,41,30.42,30.25,4,1,12,0.00
2013-12-13,48,36,27,25,19,12,63,50,32,30.34,30.24,4,2,11,0.00
2013-12-14,45,41,38,43,37,25,99,88,57,30.30,29.74,12,2,12,1.03
2013-12-15,54,42,35,42,35,27,100,78,47,29.99,29.66,6,3,11,0.00
2013-12-16,46,38,32,34,31,27,87,74,56,30.15,29.98,3,1,9,0.00
2013-12-17,55,41,31,42,37,30,99,88,54,30.11,29.90,6,1,13,0.65
2013-12-18,41,38,31,41,34,26,99,88,58,30.21,29.95,12,2,12,0.00
2013-12-19,64,46,31,31,27,24,77,50,26,30.24,30.13,4,1,16,0.00
2013-12-20,66,56,48,53,44,30,85,65,44,30.17,30.03,6,3,18,0.00
2013-12-21,70,62,52,63,56,50,93,80,66,30.08,29.98,6,2,18,0.00
2013-12-22,74,65,61,68,63,60,99,94,80,30.05,29.91,20,2,20,0.73
2013-12-23,66,59,42,65,57,33,100,94,68,30.18,29.93,26,2,26,0.42
2013-12-24,43,37,28,33,25,11,76,61,45,30.46,30.17,20,3,20,0.00
2013-12-25,37,27,21,18,13,10,70,55,40,30.58,30.44,14,1,14,0.00
2013-12-26,50,35,24,28,24,20,92,67,38,30.40,30.23,4,1,12,0.00
2013-12-27,53,38,26,27,24,22,92,63,32,30.46,30.34,3,0,8,0.00
2013-12-28,61,45,30,30,26,23,78,50,24,30.37,30.16,4,1,11,0.00
2013-12-29,52,47,43,52,45,30,100,92,46,30.16,29.61,6,2,13,1.67
2013-12-30,53,44,38,42,38,30,97,81,66,30.17,29.87,3,1,8,0.00
2013-12-31,51,39,30,34,28,22,95,65,34,30.35,30.15,8,2,16,0.00
2014-1-1,52,38,29,33,29,23,85,69,46,30.42,30.13,6,0,8,0.00
2014-1-2,46,38,34,39,33,27,97,80,65,30.13,29.58,6,0,6,0.29